Date,TemperatureHighF,TemperatureAvgF,TemperatureLowF,DewpointHighF,DewpointAvgF,DewpointLowF,HumidityHigh,HumidityAvg,HumidityLow,PressureMaxIn,PressureMinIn,WindSpeedMaxMPH,WindSpeedAvgMPH,GustSpeedMaxMPH,PrecipitationSumIn
2013-2-7,48,43,42,41,39,31,96,87,54,30.25,30.01,4,2,0,0.58
2013-2-8,52,44,41,47,42,40,97,93,79,30.01,29.96,4,1,0,0.00
2013-2-14,54,54,54,35,35,35,49,49,49,30.03,30.03,2,2,0,0.00
2013-2-16,47,35,28,36,26,15,92,71,50,30.09,29.86,4,0,10,0.05
2013-2-17,49,33,19,20,12,6,79,47,18,30.32,30.09,5,1,11,0.07
2013-2-18,58,39,23,27,23,17,87,57,30,30.42,30.25,8,1,13,0.00
2013-2-19,55,43,37,45,33,14,95,70,33,30.25,29.94,8,1,13,0.23
2013-2-20,59,40,24,25,19,14,88,47,20,30.17,30.08,4,1,9,0.00
2013-2-21,61,44,27,39,24,19,81,50,22,30.26,30.11,5,0,7,0.03
2013-2-22,44,40,39,39,38,37,97,94,80,30.30,30.14,7,1,9,0.37
2013-2-23,46,42,38,44,41,37,98,96,93,30.18,29.89,5,0,6,0.38
2013-2-24,70,51,38,48,41,33,99,74,30,30.03,29.90,5,1,8,0.00
2013-2-25,48,42,36,33,30,27,85,62,51,30.17,30.01,8,2,11,0.00
2013-2-26,43,38,33,42,36,32,97,95,86,30.06,29.65,8,2,18,1.26
2013-2-27,58,48,37,41,36,32,86,66,47,29.86,29.71,10,3,19,0.00
2013-2-28,53,44,32,36,28,24,76,55,39,29.94,29.77,7,2,13,0.00
2013-3-1,53,40,28,33,28,25,88,64,40,29.98,29.89,4,0,9,0.00
2013-3-2,46,40,33,40,32,22,93,74,58,29.99,29.88,5,0,8,0.05
2013-3-3,54,36,26,28,20,16,76,54,30,30.07,29.94,3,0,13,0.00
2013-3-4,56,40,23,30,20,15,77,47,23,30.21,30.07,6,0,9,0.00
2013-3-5,55,46,40,47,39,29,97,77,60,30.11,29.69,7,1,14,0.54
2013-3-6,52,40,34,35,26,19,75,58,39,30.16,29.73,8,2,20,0.00
2013-3-7,64,43,26,35,28,24,92,61,29,30.29,30.16,3,0,7,0.00
2013-3-8,69,44,26,32,25,15,91,53,15,30.36,30.21,4,0,10,0.00
2013-3-9,69,47,28,38,30,24,91,57,26,30.39,30.25,5,0,8,0.00
2013-3-10,72,52,36,42,37,32,89,61,31,30.32,30.17,5,0,11,0.00
2013-3-11,68,55,45,55,48,37,96,77,59,30.19,29.84,9,1,14,0.65
2013-3-12,73,58,45,57,47,31,97,72,32,30.02,29.76,5,1,10,0.12
2013-3-13,59,45,31,33,27,19,94,56,24,30.21,30.02,8,1,17,0.00
2013-3-14,55,41,31,26,20,15,67,44,24,30.34,30.20,6,1,10,0.00
2013-3-15,72,50,29,43,33,20,86,55,31,30.24,29.94,12,2,19,0.00
2013-3-16,77,64,58,50,42,-100,58,46,32,29.95,29.76,17,-8,28,0.00
2013-3-17,76,64,50,52,46,40,72,52,37,30.05,29.87,15,3,17,0.00
2013-3-18,49,42,40,42,40,38,97,91,72,30.11,29.90,11,3,17,0.38
2013-3-19,69,52,42,48,34,20,98,62,17,30.08,29.89,9,1,17,0.00
2013-3-20,59,50,44,22,16,11,38,27,20,30.13,29.83,12,2,16,0.00
2013-3-21,52,39,27,31,19,9,89,50,20,30.00,29.84,7,1,14,0.00
2013-3-22,48,38,26,27,21,16,81,54,32,30.13,30.00,6,1,14,0.00
2013-3-23,45,44,41,43,36,27,94,76,50,30.08,30.01,4,1,5,0.06
2013-3-25,45,40,35,25,20,-100,62,48,38,29.98,29.77,15,-19,21,0.00
2013-3-26,49,39,28,26,24,22,82,58,37,30.25,29.97,10,2,16,0.00
2013-3-27,59,43,29,26,24,21,84,50,26,30.32,30.19,6,1,11,0.00
2013-3-28,64,43,27,28,24,19,90,54,20,30.36,30.20,5,1,10,0.00
2013-3-29,62,46,29,41,30,24,88,58,26,30.38,30.25,7,1,11,0.00
2013-3-30,68,55,45,46,42,39,90,65,37,30.25,30.06,7,1,11,0.00
2013-3-31,70,59,50,57,53,46,98,82,56,30.07,29.85,10,2,18,0.47
2013-4-1,74,63,51,57,45,36,95,60,27,29.95,29.84,11,2,16,0.02
2013-4-2,71,64,56,34,29,23,30,26,18,30.12,30.01,7,2,15,0.00
2013-4-3,62,54,48,32,24,-100,44,33,24,30.27,30.12,15,-10,17,0.00
2013-4-4,52,43,37,37,32,25,95,70,42,30.24,30.02,15,4,23,0.36
2013-4-5,41,38,34,40,36,33,98,95,94,30.03,29.95,4,0,7,0.00
2013-4-6,40,38,37,37,36,35,93,90,86,30.20,30.11,1,0,1,0.00
2013-4-7,73,61,54,49,40,-100,82,54,37,30.14,30.11,6,-45,13,0.00
2013-4-8,78,64,51,58,52,48,95,69,42,30.18,30.06,9,2,14,0.00
2013-4-9,82,68,53,60,55,51,95,65,40,30.20,30.10,10,2,15,0.00
2013-4-10,85,73,61,62,58,56,87,62,39,30.11,29.94,8,2,16,0.00
2013-4-11,81,69,58,66,60,56,96,75,53,29.97,29.72,7,2,14,0.02
2013-4-13,60,59,57,44,41,40,58,52,49,30.03,30.01,0,0,2,0.00
2013-4-14,71,58,45,54,44,-100,90,63,36,30.09,29.98,10,-10,11,0.03
2013-4-15,71,62,55,61,57,53,97,86,61,30.20,29.97,6,1,8,0.08
2013-4-16,81,68,59,63,59,56,92,76,48,30.29,30.17,4,0,6,0.00
2013-4-17,84,67,60,65,62,58,97,84,49,30.24,30.11,9,1,11,0.27
2013-4-18,82,68,58,65,61,58,99,82,46,30.15,29.97,4,1,10,0.00
2013-4-19,73,63,50,66,60,49,95,89,75,29.96,29.77,15,4,22,0.64
2013-4-20,68,53,42,50,35,28,96,55,28,30.29,29.94,11,1,17,0.01
2013-4-21,64,47,38,39,36,33,90,68,37,30.43,30.29,8,2,14,0.00
2013-4-25,76,66,51,46,40,34,58,40,23,30.29,30.15,6,1,9,0.00
2013-4-26,74,59,44,48,38,33,72,48,26,30.44,30.29,9,1,16,0.00
2013-4-27,62,56,54,57,53,46,97,88,63,30.36,30.25,3,0,6,0.28
2013-4-28,54,53,51,54,53,51,98,98,96,30.27,30.07,4,1,8,1.55
2013-4-29,74,62,54,62,57,53,99,87,56,30.09,29.92,6,1,11,0.08
2013-4-30,77,64,52,63,58,51,99,83,53,30.16,29.98,7,1,9,0.00
2013-5-1,67,62,56,58,56,54,95,81,68,30.26,30.17,12,2,16,0.00
2013-5-2,61,58,56,58,56,55,97,93,87,30.28,30.22,10,3,14,0.02
2013-5-3,64,59,56,58,55,53,97,88,74,30.22,30.08,9,2,16,0.01
2013-5-4,59,54,51,54,49,43,97,84,64,30.08,29.95,11,3,21,0.48
2013-5-5,54,52,49,53,51,48,98,97,96,29.98,29.84,8,3,19,1.74
2013-5-6,65,57,48,57,51,46,99,82,53,29.93,29.82,5,1,14,0.00
2013-5-7,71,56,43,56,49,42,98,80,49,29.97,29.88,6,0,12,0.15
2013-5-8,77,63,49,60,54,48,99,77,48,30.04,29.91,12,1,14,0.00
2013-5-9,83,67,51,61,56,50,98,73,37,30.10,30.01,5,1,11,0.00
2013-5-10,81,69,56,64,60,55,98,75,49,30.08,29.95,8,1,19,0.00
2013-5-11,77,70,62,65,61,58,95,76,61,29.97,29.80,9,2,16,0.18
2013-5-12,77,64,53,61,46,32,95,58,20,30.06,29.86,10,1,16,0.00
2013-5-13,72,56,39,41,36,31,95,54,24,30.20,30.00,6,1,9,0.00
2013-5-14,75,60,40,52,44,38,95,60,34,30.28,30.07,9,2,12,0.00
2013-5-15,88,81,65,61,60,57,75,49,38,30.10,29.91,7,2,15,0.00
2013-5-16,82,72,59,62,59,55,87,63,45,30.02,29.92,11,1,11,0.00
2013-5-17,85,73,59,65,61,58,96,69,41,30.09,30.00,7,1,10,0.00
2013-5-18,75,68,64,69,65,60,96,89,77,30.12,30.04,4,0,6,0.24
2013-5-19,76,70,65,69,66,64,98,89,73,30.11,30.00,4,0,7,0.20
2013-5-20,86,72,62,69,66,62,98,83,55,30.11,30.00,2,0,10,0.00
2013-5-21,91,76,64,72,67,64,98,77,44,30.04,29.91,8,1,8,0.00
2013-5-22,85,74,63,72,66,61,97,79,58,29.99,29.84,8,1,15,0.21
2013-5-23,84,72,63,69,63,56,98,77,47,29.96,29.79,7,1,13,0.17
2013-5-24,75,66,55,59,47,35,97,55,24,30.22,29.90,19,2,20,0.00
2013-5-25,78,65,50,52,44,38,83,50,28,30.31,30.12,5,1,9,0.00
2013-5-26,78,64,53,54,50,43,88,63,34,30.30,30.12,4,0,7,0.00
2013-5-27,84,69,52,61,56,51,98,68,40,30.27,30.12,6,1,8,0.00
2013-5-28,85,73,62,64,62,60,94,70,47,30.23,30.11,4,1,10,0.00
2013-5-29,86,74,59,65,62,58,97,68,44,30.24,30.11,7,1,11,0.00
2013-6-5,69,69,68,68,68,67,97,97,96,30.00,29.98,1,0,4,0.80
2013-6-6,74,69,65,72,68,64,98,97,90,29.98,29.80,4,0,8,0.46
2013-6-7,84,71,67,73,69,67,99,94,69,29.83,29.67,5,0,10,0.39
2013-6-8,85,75,65,70,68,65,99,81,56,30.08,29.82,5,1,11,0.00
2013-6-9,86,72,66,73,69,65,98,90,61,30.13,30.03,4,0,13,2.24
2013-6-10,77,72,68,73,69,66,98,92,79,30.06,29.91,6,2,14,0.53
2013-6-11,92,78,68,73,69,63,98,78,40,30.00,29.90,9,1,12,0.10
2013-6-12,93,80,65,78,71,64,99,77,45,30.01,29.89,5,1,10,0.00
2013-6-13,92,80,69,75,71,68,94,76,48,29.91,29.69,11,1,18,0.06
2013-6-14,87,74,60,68,60,56,96,65,37,30.03,29.78,8,1,13,0.00
2013-6-15,86,72,58,65,60,57,98,69,44,30.14,30.02,5,1,11,0.00
2013-6-16,87,76,64,70,65,61,94,72,44,30.15,29.97,5,1,11,0.00
2013-6-17,85,74,69,75,70,67,97,88,67,30.04,29.91,7,1,15,0.80
2013-6-18,83,74,70,76,71,69,98,92,71,29.96,29.75,7,1,13,0.21
2013-6-19,82,76,67,70,67,65,97,75,61,30.10,29.98,6,1,8,0.03
2013-6-20,84,73,65,69,66,64,98,80,54,30.21,30.09,4,1,11,0.02
2013-6-21,86,73,63,67,64,62,98,76,46,30.27,30.13,5,1,9,0.02
2013-6-22,89,75,61,68,64,60,98,73,44,30.23,30.07,4,0,10,0.01
2013-6-23,88,75,67,74,70,66,98,84,57,30.21,30.07,3,0,9,0.02
2013-6-24,88,77,68,74,70,68,99,82,57,30.21,30.05,9,1,10,0.01
2013-6-25,90,77,71,77,71,69,97,83,53,30.14,29.99,8,1,36,0.01
2013-6-26,90,78,71,75,72,70,98,84,58,30.04,29.90,6,1,12,0.50
2013-6-27,89,78,71,79,73,68,98,86,64,29.95,29.70,11,1,25,0.72
2013-6-28,94,80,68,75,72,68,99,79,47,29.78,29.59,5,1,17,0.01
2013-6-29,90,78,70,73,70,66,97,77,47,29.70,29.57,6,1,10,0.00
2013-6-30,86,75,70,74,70,68,94,83,54,29.82,29.68,5,0,7,0.00
2013-7-1,84,74,69,73,70,67,97,86,66,29.95,29.80,4,0,10,0.17
2013-7-2,82,74,70,75,71,69,98,92,73,30.12,29.95,6,1,11,0.46
2013-7-3,82,74,67,74,71,66,97,91,74,30.21,30.10,4,0,11,0.49
2013-7-4,82,71,66,76,70,66,99,96,79,30.22,30.12,3,0,10,1.43
2013-7-5,88,74,69,74,71,68,99,91,61,30.23,30.15,8,0,13,0.49
2013-7-6,85,75,71,76,73,71,99,92,68,30.21,30.08,6,0,11,0.18
2013-7-7,85,77,72,75,73,71,99,88,66,30.17,30.06,5,1,10,0.02
2013-7-8,89,76,71,76,72,70,98,89,61,30.18,30.09,6,0,10,0.47
2013-7-9,90,78,70,77,73,69,99,85,59,30.18,30.00,4,1,10,0.37
2013-7-10,88,75,69,78,72,69,99,92,67,30.13,29.94,6,0,16,0.91
2013-7-11,82,76,72,76,74,71,99,93,80,29.96,29.86,2,0,5,0.01
2013-7-12,88,74,65,76,70,63,98,89,64,29.99,29.86,5,0,10,0.32
2013-7-13,78,71,65,73,69,64,98,92,80,30.10,29.99,6,1,10,0.01
2013-7-14,78,73,70,74,72,69,98,94,82,30.26,30.09,4,1,13,0.42
2013-7-15,85,76,69,74,71,69,99,87,64,30.32,30.23,5,1,9,0.00
2013-7-16,95,80,70,75,72,69,99,79,50,30.30,30.19,3,0,6,0.00
2013-7-17,94,79,69,76,72,67,98,82,48,30.25,30.11,6,0,18,0.47
2013-7-18,92,79,68,77,72,68,99,82,52,30.19,30.04,2,0,4,0.00
2013-7-19,93,80,71,77,74,70,99,81,55,30.11,29.95,5,0,7,0.00
2013-7-20,86,77,73,77,74,71,98,89,70,30.03,29.93,6,1,11,0.13
2013-7-21,90,76,70,77,73,70,99,91,60,30.01,29.92,7,0,13,0.52
2013-7-22,87,77,70,76,72,70,99,86,63,30.00,29.81,7,1,13,0.02
2013-7-23,91,78,69,75,71,68,97,81,50,29.89,29.77,4,1,9,0.00
2013-7-24,90,79,69,76,72,68,98,78,57,29.83,29.75,5,0,8,0.00
2013-7-25,88,74,64,73,68,62,98,83,57,30.01,29.82,14,1,17,1.13
2013-7-26,86,74,66,74,70,65,99,88,63,30.09,29.98,3,0,5,0.00
2013-7-27,83,76,71,75,72,69,98,89,73,30.02,29.88,3,0,8,0.50
2013-7-28,88,76,67,73,69,66,99,82,54,30.01,29.87,8,1,13,0.01
2013-7-29,90,76,64,71,68,63,98,79,50,30.15,30.00,2,0,5,0.00
2013-7-30,88,75,63,73,68,62,96,79,57,30.21,30.11,5,0,9,0.00
2013-7-31,81,75,71,75,72,70,97,90,78,30.16,29.96,3,0,6,0.06
2013-8-1,87,77,72,77,73,69,96,88,66,29.99,29.86,4,0,11,0.06
2013-8-2,92,78,67,74,71,66,99,80,51,30.03,29.91,3,0,6,0.00
2013-8-3,89,80,72,74,72,68,98,79,52,30.01,29.92,5,0,10,0.00
2013-8-4,90,79,70,73,69,63,97,75,53,30.02,29.92,7,1,11,0.00
2013-8-5,88,76,68,72,68,64,92,77,57,30.07,29.96,6,1,8,0.00
2013-8-6,86,75,69,76,71,66,98,87,67,30.05,29.95,4,1,11,1.23
2013-8-7,78,74,72,76,72,71,98,95,92,30.07,30.00,3,0,6,0.37
2013-8-8,86,77,72,76,73,71,99,89,68,30.07,30.00,4,0,8,0.00
2013-8-9,90,77,72,78,74,71,99,91,64,30.08,30.00,4,0,15,0.09
2013-8-10,92,80,73,78,74,71,99,85,56,30.10,30.03,5,1,13,0.01
2013-8-11,92,77,70,77,72,69,98,88,56,30.12,30.05,7,1,12,0.01
2013-8-12,92,78,71,76,74,70,99,87,57,30.08,29.95,2,0,13,0.31
2013-8-13,89,78,72,77,73,70,98,85,63,29.97,29.78,7,1,13,0.01
2013-8-14,81,73,69,71,67,62,97,83,65,30.05,29.86,4,0,6,0.00
2013-8-15,74,68,64,64,61,58,90,77,62,30.14,30.05,7,1,14,0.00
2013-8-16,72,66,61,64,62,60,96,87,73,30.17,30.08,5,1,9,0.11
2013-8-17,68,65,63,64,62,60,97,90,82,30.19,30.13,7,1,13,0.06
2013-8-18,77,69,64,71,67,64,98,93,80,30.23,30.15,2,0,4,0.17
2013-8-19,77,71,67,71,69,66,98,94,80,30.20,30.08,3,0,6,0.61
2013-8-20,82,73,67,73,70,67,98,90,71,30.20,30.11,3,0,4,0.01
2013-8-21,84,74,70,75,72,69,99,94,72,30.23,30.12,3,0,4,0.31
2013-8-22,89,75,68,76,71,67,99,90,60,30.16,30.03,11,0,17,0.83
2013-8-23,92,76,68,74,70,67,99,85,50,30.06,29.96,7,0,19,0.01
2013-8-24,82,72,65,69,64,61,97,78,53,30.29,30.06,5,2,15,0.00
2013-8-25,81,68,58,65,61,57,98,79,50,30.39,30.27,6,0,9,0.00
2013-8-26,87,70,58,69,62,57,99,79,48,30.34,30.12,3,0,6,0.00
2013-8-27,92,76,66,72,67,64,95,76,43,30.16,30.00,3,0,6,0.00
2013-8-28,92,78,68,74,70,67,98,78,51,30.03,29.93,3,0,8,0.00
2013-8-29,94,80,69,77,72,68,98,79,50,29.95,29.87,6,1,9,0.00
2013-8-30,87,78,74,75,72,69,93,82,61,30.04,29.92,4,0,10,0.00
2013-8-31,88,76,70,78,72,69,98,89,64,29.96,29.87,4,0,14,0.28
2013-9-1,88,77,69,77,73,68,99,88,67,29.92,29.81,8,1,12,0.00
2013-9-2,89,79,73,75,73,70,97,83,62,29.90,29.81,2,0,5,0.00
2013-9-3,90,76,67,73,69,65,97,82,51,29.97,29.82,8,0,9,0.03
2013-9-4,90,76,66,72,68,65,98,78,51,30.09,29.96,3,0,7,0.00
2013-9-5,92,76,66,73,68,63,99,78,45,30.12,30.04,4,0,5,0.00
2013-9-6,85,72,62,66,63,61,97,75,48,30.18,30.07,6,1,11,0.00
2013-9-7,86,73,62,68,65,62,98,79,50,30.14,29.99,4,0,7,0.00
2013-9-8,89,75,63,73,67,62,99,81,51,30.00,29.93,2,0,5,0.00
2013-9-9,89,76,66,72,68,66,98,79,51,30.13,30.00,5,0,8,0.00
2013-9-10,91,76,65,74,69,65,98,80,49,30.23,30.13,3,0,6,0.00
2013-9-11,90,76,65,72,68,64,99,78,47,30.22,30.08,4,0,7,0.00
2013-9-12,90,76,69,73,70,67,97,83,52,30.09,29.86,4,0,13,0.00
2013-9-13,87,75,65,70,63,53,97,71,44,29.89,29.78,7,1,11,0.00
2013-9-14,80,67,57,60,55,51,94,67,49,30.11,29.90,5,1,16,0.00
2013-9-15,82,68,57,68,62,56,97,84,60,30.22,30.11,5,0,7,0.00
2013-9-16,87,74,64,72,65,62,98,77,44,30.14,30.05,3,0,5,0.00
2013-9-17,74,69,65,62,59,57,79,71,62,30.29,30.14,9,2,14,0.00
2013-9-18,75,67,60,62,59,56,93,75,59,30.29,30.17,3,1,10,0.00
2013-9-19,84,70,58,68,63,57,98,80,53,30.19,30.08,3,0,6,0.00
2013-9-20,88,73,63,68,65,62,98,78,49,30.09,29.91,4,0,11,0.00
2013-9-21,74,68,64,71,67,63,98,95,87,29.93,29.66,7,1,11,0.59
2013-9-22,79,67,57,64,60,56,99,83,53,29.91,29.74,4,0,7,0.00
2013-9-23,78,66,59,62,59,56,96,80,53,30.06,29.91,5,0,9,0.00
2013-9-24,76,66,56,64,61,55,98,84,62,30.08,29.94,3,0,4,0.00
2013-9-25,69,64,62,64,62,61,98,94,81,29.94,29.87,2,0,6,0.27
2013-9-26,75,65,57,63,60,55,99,86,61,30.04,29.89,6,1,10,0.00
2013-9-27,76,64,53,60,57,53,98,79,52,30.18,30.05,6,1,10,0.01
2013-9-28,73,63,53,58,56,52,98,80,58,30.26,30.15,6,1,10,0.00
2013-9-29,73,63,54,60,56,52,95,80,57,30.19,30.04,4,0,7,0.00
2013-9-30,78,65,56,62,58,55,98,81,52,30.11,30.00,2,0,5,0.00
2013-10-1,83,67,54,63,58,53,98,78,42,30.16,30.05,3,0,8,0.00
2013-10-2,83,68,57,66,61,56,98,81,49,30.16,30.07,2,0,7,0.00
2013-10-3,84,70,58,67,62,57,98,79,49,30.14,30.07,4,0,8,0.00
2013-10-4,86,74,65,68,59,-100,95,67,51,30.16,30.07,3,-40,6,0.00
2013-10-5,88,72,59,69,64,58,98,80,46,30.14,30.03,2,0,5,0.00
2013-10-6,83,70,60,68,64,60,98,82,53,30.05,29.87,4,0,8,0.00
2013-10-7,77,68,58,70,64,54,98,87,66,29.99,29.80,4,0,8,0.17
2013-10-8,70,62,58,54,52,48,87,69,56,30.20,29.99,10,2,24,0.17
2013-10-9,73,61,52,53,48,41,93,64,38,30.24,30.11,5,1,15,0.00
2013-10-10,78,61,45,58,52,45,98,75,44,30.15,30.00,4,0,9,0.00
2013-10-11,81,66,54,60,56,52,97,72,38,30.03,29.93,6,0,10,0.00
2013-10-12,79,66,54,63,59,53,98,81,53,30.10,29.98,3,0,7,0.00
2013-10-13,75,68,64,65,63,61,95,85,68,30.21,30.10,5,1,10,0.00
2013-10-14,69,66,64,63,62,60,94,87,77,30.23,30.14,7,2,11,0.00
2013-10-15,69,62,57,61,58,56,96,86,70,30.19,30.07,6,1,12,0.00
2013-10-16,73,62,51,61,56,51,98,84,60,30.09,29.98,2,0,5,0.00
2013-10-17,68,64,60,66,63,59,97,94,84,29.98,29.88,4,0,8,0.13
2013-10-18,71,62,52,65,57,51,98,87,66,30.04,29.90,3,0,7,0.13
2013-10-19,64,60,51,61,57,50,98,91,76,29.97,29.87,5,0,11,0.01
2013-10-20,67,54,43,51,47,42,98,81,51,30.11,29.95,2,0,7,0.01
2013-10-21,69,55,43,56,50,42,98,84,61,30.18,30.03,3,0,9,0.01
2013-10-22,67,61,54,58,56,50,97,84,57,30.05,29.82,4,0,8,0.00
2013-10-23,66,54,39,55,42,33,96,69,31,30.07,29.76,9,1,16,0.00
2013-10-24,63,47,33,43,38,32,97,74,43,30.20,30.08,5,0,9,0.00
2013-10-25,54,43,34,40,33,28,95,70,41,30.42,30.20,6,1,12,0.00
2013-10-26,59,44,28,38,33,27,97,70,44,30.41,30.13,6,1,12,0.00
2013-10-27,71,54,39,53,46,37,97,74,50,30.17,30.08,4,0,8,0.00
2013-10-28,68,59,52,59,55,51,97,86,64,30.27,30.13,3,0,8,0.03
2013-10-29,72,59,48,58,53,47,98,82,53,30.35,30.25,2,0,7,0.03
2013-10-30,78,63,53,60,56,52,98,81,52,30.30,30.17,6,0,12,0.00
2013-10-31,72,64,54,64,59,53,97,84,69,30.19,29.90,5,1,11,0.00
2013-11-1,69,65,59,65,62,58,96,89,77,29.90,29.68,5,2,12,0.09
2013-11-2,69,56,43,58,46,37,98,73,35,30.03,29.74,5,1,13,0.01
2013-11-3,63,49,39,43,40,37,96,75,42,30.39,30.03,5,0,9,0.01
2013-11-4,58,47,38,39,37,35,95,69,42,30.54,30.38,5,1,11,0.00
2013-11-5,59,48,37,49,40,32,90,76,57,30.57,30.44,9,1,17,0.00
2013-11-6,69,57,51,57,52,49,96,83,62,30.44,30.15,6,1,9,0.00
2013-11-7,71,56,48,61,47,33,98,75,42,30.17,29.99,11,2,16,0.01
2013-11-8,62,49,35,34,29,25,84,49,25,30.34,30.17,11,2,22,0.01
2013-11-9,60,46,31,39,32,29,92,63,34,30.42,30.26,5,0,8,0.00
2013-11-10,74,55,42,44,38,36,88,59,27,30.27,30.15,3,0,8,0.00
2013-11-11,64,48,36,37,32,28,88,57,30,30.38,30.19,4,0,9,0.00
2013-11-12,66,46,30,41,32,15,91,62,31,30.50,30.10,14,2,22,0.00
2013-11-13,51,35,22,23,18,13,80,54,24,30.60,30.49,2,0,6,0.00
2013-11-14,60,39,24,26,23,19,90,58,21,30.54,30.37,5,1,8,0.00
2013-11-15,58,46,31,48,36,24,96,73,30,30.39,30.22,1,0,4,0.09
2013-11-16,64,55,48,57,52,47,97,90,76,30.29,30.20,3,0,6,0.09
2013-11-17,66,59,55,61,57,53,98,92,81,30.23,29.93,2,0,5,0.36
2013-11-18,76,63,53,63,50,33,99,68,32,30.00,29.87,8,2,18,0.01
2013-11-19,57,50,42,33,29,26,68,46,32,30.26,29.99,6,1,16,0.01
2013-11-20,52,45,38,34,31,29,72,58,44,30.46,30.26,9,2,14,0.00
2013-11-21,52,48,45,48,40,33,96,77,61,30.49,30.40,7,2,11,0.02
2013-11-22,60,54,49,57,53,48,98,95,90,30.42,30.15,4,0,8,0.02
2013-11-23,59,54,41,57,45,24,97,72,38,30.23,30.09,9,2,15,0.00
2013-11-24,43,35,28,25,15,11,61,45,31,30.57,30.23,10,2,21,0.00
2013-11-25,43,34,22,17,14,9,77,47,27,30.61,30.36,7,0,10,0.00
2013-11-26,46,39,32,45,37,16,98,93,41,30.36,29.67,5,2,13,0.00
2013-11-27,46,39,30,46,31,17,98,75,49,30.26,29.58,9,2,18,0.02
2013-11-28,48,34,21,28,22,17,92,66,39,30.53,30.26,5,0,11,0.02
2013-11-29,55,37,25,31,27,24,97,72,30,30.62,30.50,3,0,8,0.00
2013-11-30,48,36,32,29,26,23,84,68,39,30.66,30.42,7,1,13,0.00
2013-12-1,57,42,32,41,33,27,95,73,43,30.41,30.05,3,0,7,0.00
2013-12-2,59,46,32,48,40,31,98,83,50,30.05,29.85,4,0,7,0.00
2013-12-3,57,53,50,53,51,48,97,94,85,29.97,29.89,3,0,4,0.13
2013-12-4,61,57,53,61,56,53,98,98,97,30.09,29.96,4,0,5,0.05
2013-12-5,68,64,61,67,64,60,98,98,96,30.11,30.01,5,1,12,0.08
2013-12-6,75,69,67,67,65,64,97,87,70,30.06,29.96,9,3,16,0.02
2013-12-7,67,57,50,65,52,43,97,83,68,30.38,29.99,12,2,13,0.12
2013-12-8,49,40,36,44,38,35,97,94,81,30.41,30.30,7,2,10,0.11
2013-12-9,45,41,36,45,40,35,98,98,97,30.32,30.09,2,0,4,0.33
2013-12-10,56,47,37,54,40,22,99,78,47,30.35,29.95,10,1,13,0.09
2013-12-11,53,38,26,31,27,23,96,69,36,30.50,30.34,4,0,8,0.09
2013-12-12,51,38,28,28,22,17,92,57,28,30.46,30.34,5,0,6,0.00
2013-12-13,54,38,23,34,26,20,90,65,33,30.43,30.29,5,0,9,0.00
2013-12-14,43,41,39,41,37,31,97,86,66,30.30,29.86,6,1,11,0.63
2013-12-15,52,44,31,46,37,28,98,80,54,30.16,29.80,6,1,10,0.01
2013-12-16,60,43,27,35,30,26,97,67,31,30.23,30.14,8,1,11,0.01
2013-12-17,64,50,39,37,34,26,75,56,35,30.19,29.99,11,2,19,0.00
2013-12-18,55,41,30,28,24,20,80,53,28,30.33,30.09,5,0,9,0.00
2013-12-19,62,44,30,31,27,19,88,58,20,30.38,30.26,5,0,10,0.00
2013-12-20,59,48,38,47,40,31,88,75,60,30.28,30.18,4,0,7,0.00
2013-12-21,66,56,49,63,54,46,98,92,87,30.17,30.01,3,0,7,0.02
2013-12-22,69,64,60,66,62,59,98,94,87,30.07,29.98,7,1,16,1.06
2013-12-23,60,55,46,59,52,37,98,90,72,30.18,30.00,4,1,9,0.15
2013-12-24,46,39,29,39,27,17,80,63,45,30.46,30.18,9,2,14,0.15
2013-12-25,42,32,24,24,17,12,72,56,31,30.59,30.44,6,1,10,0.00
2013-12-26,56,38,27,30,25,20,86,62,32,30.43,30.29,2,0,5,0.00
2013-12-27,53,38,28,29,26,22,91,67,33,30.52,30.39,4,0,6,0.00
2013-12-28,49,38,26,40,31,25,95,80,49,30.46,30.14,2,0,8,0.21
2013-12-29,61,47,40,53,44,39,98,91,73,30.14,29.84,5,1,12,0.19
2013-12-30,54,44,35,46,40,34,98,86,67,30.16,29.99,4,0,10,0.19
2013-12-31,50,41,33,39,31,26,94,71,41,30.40,30.16,3,0,6,0.00
2014-1-1,50,39,30,37,32,28,94,77,52,30.43,30.19,2,0,5,0.00
2014-1-2,46,43,31,45,39,17,97,88,56,30.18,29.70,7,1,17,0.12